period_start,C,m1,H,J0,J1,J2,J3,J4,J5,JA,JB,JC,JD,JJ,JK,JN,#
2015-06-30 00:03:53,-0.00,0.32,0.00,27.60,30.91,33.18,4.61,26.43,1003.48,2023.08,3325.00,3199.52,3478.00,349.80,337.74,29.06,0000 0000 0000 0000 000000
2015-06-30 00:08:54,0.02,0.32,0.00,27.63,30.94,33.20,4.62,26.42,1003.45,2023.03,3324.96,3199.11,3477.93,349.95,337.76,29.09,0000 0000 0000 0000 000000
2015-06-30 00:13:55,0.04,0.32,0.00,27.66,30.96,33.23,4.57,26.38,1003.45,2023.00,3324.24,3199.00,3477.31,349.84,337.67,29.12,0000 0000 0000 0000 000000
2015-06-30 00:18:57,0.00,0.32,0.00,27.70,30.99,33.26,4.57,26.35,1003.45,2023.00,3324.00,3198.97,3477.02,349.82,337.71,29.15,0000 0000 0000 0000 000000
2015-06-30 00:23:58,0.05,0.32,0.00,27.72,31.01,33.28,4.67,26.31,1003.44,2023.00,3323.67,3198.34,3476.90,350.32,338.12,29.18,0000 0000 0000 0000 000000
2015-06-30 00:28:59,0.03,0.32,0.00,27.76,31.04,33.31,4.56,26.33,1003.46,2022.98,3323.03,3198.00,3476.17,349.55,337.31,29.21,0000 0000 0000 0000 000000
2015-06-30 00:34:01,0.03,0.32,0.00,27.79,31.06,33.33,4.59,26.24,1003.47,2022.94,3322.58,3197.82,3476.00,349.43,337.33,29.23,0000 0000 0000 0000 000000
2015-06-30 00:39:02,0.00,0.32,0.00,27.83,31.09,33.36,4.65,26.44,1003.49,2022.73,3322.00,3197.09,3475.41,350.40,338.08,29.26,0000 0000 0000 0000 000000
2015-06-30 00:44:04,-0.02,0.32,0.00,27.86,31.11,33.39,4.54,26.33,1003.46,2022.34,3321.50,3196.91,3474.98,349.31,336.94,29.29,0000 0000 0000 0000 000000
2015-06-30 00:49:05,0.03,0.32,0.00,27.89,31.14,33.41,4.48,26.24,1003.45,2022.09,3320.99,3196.16,3474.35,349.33,337.09,29.32,0000 0000 0000 0000 000000
2015-06-30 00:54:06,0.03,0.32,0.00,27.93,31.17,33.44,4.62,26.37,1003.44,2022.03,3320.25,3195.93,3473.95,349.75,337.38,29.35,0000 0000 0000 0000 000000
2015-06-30 00:59:07,0.05,0.33,0.00,27.95,31.20,33.47,4.67,26.38,1003.44,2022.00,3319.88,3195.28,3473.30,350.53,338.05,29.38,0000 0000 0000 0000 000000
2015-06-30 01:04:09,0.03,0.33,0.00,27.98,31.23,33.49,4.69,26.39,1003.44,2022.00,3319.11,3194.98,3472.97,350.23,337.71,29.41,0000 0000 0000 0000 000000
2015-06-30 01:09:10,0.07,0.33,0.00,28.01,31.26,33.52,4.59,26.40,1003.44,2022.00,3318.65,3194.37,3472.30,349.87,337.55,29.44,0000 0000 0000 0000 000000
2015-06-30 01:14:12,0.01,0.33,0.00,28.06,31.28,33.55,4.54,26.47,1003.43,2021.98,3318.02,3193.99,3471.95,349.57,337.05,29.47,0000 0000 0000 0000 000000
2015-06-30 01:19:13,0.07,0.33,0.00,28.08,31.31,33.57,4.73,26.38,1003.44,2021.91,3317.36,3193.44,3471.21,350.42,337.81,29.50,0000 0000 0000 0000 000000
2015-06-30 01:24:14,-0.07,0.33,0.00,28.13,31.34,33.60,4.68,26.38,1003.46,2021.43,3316.84,3192.98,3470.67,350.00,337.18,29.53,0000 0000 0000 0000 000000
2015-06-30 01:29:16,0.04,0.33,0.00,28.16,31.37,33.63,4.63,26.34,1003.46,2021.18,3316.09,3192.43,3470.05,350.20,337.46,29.56,0000 0000 0000 0000 000000
2015-06-30 01:34:17,0.01,0.33,0.00,28.20,31.40,33.65,4.59,26.30,1003.49,2021.05,3315.57,3192.00,3469.77,349.93,337.21,29.59,0000 0000 0000 0000 000000
2015-06-30 01:39:19,0.04,0.33,0.00,28.24,31.43,33.68,4.64,26.47,1003.45,2021.00,3315.02,3191.68,3469.07,349.95,337.06,29.62,0000 0000 0000 0000 000000
2015-06-30 01:44:20,0.05,0.33,0.00,28.28,31.46,33.71,4.57,26.25,1003.46,2021.00,3314.44,3191.03,3468.64,349.88,337.07,29.65,0000 0000 0000 0000 000000
2015-06-30 01:49:21,0.03,0.34,0.00,28.32,31.49,33.74,4.65,26.29,1003.47,2021.00,3313.95,3190.72,3468.02,350.21,337.34,29.67,0000 0000 0000 0000 000000
2015-06-30 01:54:23,0.05,0.34,0.00,28.36,31.52,33.77,4.55,26.28,1003.52,2020.98,3313.25,3190.06,3467.84,349.76,336.88,29.70,0000 0000 0000 0000 000000
2015-06-30 01:59:24,0.01,0.34,0.00,28.40,31.56,33.80,4.68,26.62,1003.45,2020.93,3312.96,3189.99,3467.06,350.41,337.52,29.73,0000 0000 0000 0000 000000
2015-06-30 02:04:25,0.02,0.34,0.00,28.42,31.59,33.84,4.71,26.56,1003.45,2020.76,3312.27,3189.48,3466.97,350.51,337.40,29.76,0000 0000 0000 0000 000000
2015-06-30 02:09:26,-0.04,0.34,0.00,28.46,31.62,33.87,4.66,26.51,1003.44,2020.28,3311.97,3189.01,3466.34,350.41,337.27,29.79,0000 0000 0000 0000 000000
2015-06-30 02:14:27,0.01,0.34,0.00,28.50,31.65,33.90,4.61,26.39,1003.47,2020.06,3311.33,3188.85,3465.99,350.32,337.22,29.82,0000 0000 0000 0000 000000
2015-06-30 02:19:28,0.04,0.34,0.00,28.52,31.69,33.94,4.58,26.37,1003.52,2020.00,3310.98,3188.13,3465.50,349.83,336.57,29.85,0000 0000 0000 0000 000000
2015-06-30 02:24:29,0.03,0.34,0.00,28.55,31.71,33.96,4.54,26.35,1003.53,2020.00,3310.47,3188.00,3465.02,349.94,336.84,29.88,0000 0000 0000 0000 000000
2015-06-30 02:29:31,0.02,0.34,0.00,28.59,31.75,33.99,4.64,26.49,1003.47,2019.97,3310.04,3187.86,3464.79,349.67,336.40,29.91,0000 0000 0000 0000 000000
2015-06-30 02:34:32,0.02,0.34,0.00,28.63,31.78,34.02,4.57,26.34,1003.50,2019.69,3309.62,3187.15,3464.08,350.04,336.83,29.94,0000 0000 0000 0000 000000
2015-06-30 02:39:33,-0.07,0.34,0.00,28.67,31.81,34.05,4.66,26.67,1003.55,2019.20,3309.04,3186.99,3463.78,349.56,336.29,29.97,0000 0000 0000 0000 000000
2015-06-30 02:44:34,0.02,0.34,0.00,28.70,31.84,34.09,4.73,26.60,1003.57,2019.03,3308.98,3186.80,3463.26,350.63,337.11,30.00,0000 0000 0000 0000 000000
2015-06-30 02:49:36,0.04,0.34,0.00,28.74,31.87,34.12,4.66,26.50,1003.60,2019.00,3308.53,3186.14,3463.01,350.20,336.77,30.03,0000 0000 0000 0000 000000
2015-06-30 02:54:37,0.01,0.34,0.00,28.77,31.91,34.16,4.59,26.39,1003.67,2019.00,3308.03,3186.00,3462.89,349.94,336.54,30.06,0000 0000 0000 0000 000000
2015-06-30 02:59:38,0.06,0.34,0.00,28.81,31.94,34.19,4.63,26.39,1003.90,2018.99,3307.53,3185.75,3462.09,350.20,336.90,30.08,0000 0000 0000 0000 000000
2015-06-30 03:04:40,0.03,0.34,0.00,28.85,31.97,34.22,4.69,26.33,1003.92,2018.95,3306.98,3185.08,3461.97,350.58,337.28,30.11,0000 0000 0000 0000 000000
2015-06-30 03:09:41,-0.00,0.34,0.00,28.89,32.01,34.24,4.62,26.28,1003.92,2018.68,3306.23,3184.97,3461.28,350.35,336.94,30.14,0000 0000 0000 0000 000000
2015-06-30 03:14:42,-0.02,0.34,0.00,28.93,32.04,34.28,4.56,26.30,1003.92,2018.42,3306.01,3184.62,3461.01,349.53,336.25,30.17,0000 0000 0000 0000 000000
2015-06-30 03:19:44,-0.01,0.34,0.00,28.96,32.07,34.32,4.59,26.33,1003.93,2018.08,3305.93,3184.08,3460.91,350.10,336.65,30.20,0000 0000 0000 0000 000000
2015-06-30 03:24:45,0.04,0.34,0.00,28.99,32.11,34.35,4.54,26.25,1003.92,2018.03,3305.14,3183.99,3460.25,349.74,335.93,30.23,0000 0000 0000 0000 000000
2015-06-30 03:29:46,0.01,0.34,0.00,29.03,32.14,34.39,4.61,26.31,1003.93,2018.00,3305.00,3183.74,3459.99,350.36,337.02,30.26,0000 0000 0000 0000 000000
2015-06-30 03:34:48,0.06,0.35,0.00,29.06,32.18,34.43,4.53,26.30,1003.95,2018.00,3304.52,3183.12,3459.57,349.61,336.13,30.29,0000 0000 0000 0000 000000
2015-06-30 03:39:49,0.00,0.35,0.00,29.09,32.21,34.47,4.60,26.38,1003.95,2017.95,3304.01,3182.99,3459.02,349.94,336.30,30.32,0000 0000 0000 0000 000000
2015-06-30 03:44:50,-0.01,0.35,0.00,29.12,32.24,34.50,4.62,26.18,1003.98,2017.71,3303.82,3182.59,3458.83,349.79,336.43,30.35,0000 0000 0000 0000 000000
2015-06-30 03:49:51,-0.02,0.35,0.00,29.14,32.28,34.53,4.63,26.31,1004.04,2017.18,3303.09,3182.03,3458.12,350.03,336.47,30.38,0000 0000 0000 0000 000000
2015-06-30 03:54:52,-0.01,0.35,0.00,29.17,32.31,34.57,4.64,26.24,1004.03,2017.04,3302.95,3181.98,3457.99,350.59,336.94,30.41,0000 0000 0000 0000 000000
2015-06-30 03:59:54,0.07,0.35,0.00,29.19,32.34,34.59,4.53,26.16,1003.97,2017.00,3302.30,3181.57,3457.56,349.34,335.86,30.44,0000 0000 0000 0000 000000
2015-06-30 04:04:55,0.02,0.35,0.00,29.22,32.38,34.63,4.57,26.20,1003.94,2017.00,3301.98,3181.01,3457.01,350.26,336.36,30.47,0000 0000 0000 0000 000000
2015-06-30 04:09:56,0.02,0.35,0.00,29.26,32.41,34.67,4.61,26.40,1003.95,2016.98,3301.37,3180.96,3456.86,349.63,335.85,30.49,0000 0000 0000 0000 000000
2015-06-30 04:14:58,0.03,0.35,0.00,29.30,32.44,34.70,4.51,26.40,1003.95,2016.86,3300.99,3180.36,3456.11,349.65,335.87,30.52,0000 0000 0000 0000 000000
2015-06-30 04:19:59,-0.06,0.35,0.00,29.32,32.48,34.72,4.62,26.40,1003.92,2016.38,3300.50,3180.01,3455.98,350.42,336.45,30.55,0000 0000 0000 0000 000000
2015-06-30 04:25:01,0.00,0.35,0.00,29.36,32.51,34.76,4.57,26.47,1003.93,2016.06,3300.01,3179.87,3455.33,349.82,336.13,30.58,0000 0000 0000 0000 000000
2015-06-30 04:30:02,0.05,0.35,0.00,29.40,32.54,34.78,4.57,26.51,1003.92,2016.01,3299.71,3179.12,3454.96,350.18,336.26,30.61,0000 0000 0000 0000 000000
2015-06-30 04:35:03,0.03,0.35,0.00,29.44,32.58,34.82,4.48,26.36,1003.93,2016.00,3299.02,3178.97,3454.43,349.60,335.64,30.64,0000 0000 0000 0000 000000
2015-06-30 04:40:04,0.06,0.35,0.00,29.49,32.61,34.85,4.53,26.40,1003.93,2016.00,3298.54,3178.26,3453.99,349.85,335.74,30.67,0000 0000 0000 0000 000000
2015-06-30 04:45:06,0.02,0.35,0.00,29.52,32.65,34.89,4.58,26.37,1003.92,2015.99,3298.01,3177.98,3453.40,349.65,335.78,30.70,0000 0000 0000 0000 000000
2015-06-30 04:50:07,0.02,0.35,0.00,29.56,32.68,34.93,4.58,26.37,1003.92,2015.82,3297.62,3177.43,3453.00,349.95,335.77,30.73,0000 0000 0000 0000 000000
2015-06-30 04:55:08,-0.06,0.35,0.00,29.59,32.71,34.96,4.63,26.32,1003.92,2015.27,3297.01,3177.01,3452.35,350.08,336.17,30.76,0000 0000 0000 0000 000000
2015-06-30 05:00:10,0.02,0.35,0.00,29.63,32.75,35.00,4.57,26.33,1003.93,2015.03,3296.57,3176.69,3451.99,349.75,335.68,30.79,0000 0000 0000 0000 000000
2015-06-30 05:05:11,0.04,0.35,0.00,29.66,32.79,35.03,4.65,26.32,1003.93,2015.00,3296.01,3176.03,3451.38,350.01,335.92,30.82,0000 0000 0000 0000 000000
2015-06-30 05:10:12,0.01,0.35,0.00,29.68,32.82,35.06,4.61,26.41,1003.97,2014.99,3295.61,3175.95,3451.00,349.90,335.69,30.85,0000 0000 0000 0000 000000
2015-06-30 05:15:14,0.00,0.36,0.00,29.71,32.85,35.11,4.54,26.54,1004.00,2014.69,3295.03,3175.18,3450.29,349.76,335.39,30.88,0000 0000 0000 0000 000000
2015-06-30 05:20:15,-0.06,0.35,0.00,29.72,32.89,35.15,4.66,26.81,1004.01,2014.22,3294.89,3174.99,3450.00,350.42,336.24,30.90,0000 0000 0000 0000 000000
2015-06-30 05:25:16,0.05,0.35,0.00,29.75,32.92,35.19,4.50,26.43,1004.00,2014.03,3294.07,3174.52,3449.74,349.37,335.35,30.93,0000 0000 0000 0000 000000
2015-06-30 05:30:17,0.03,0.36,0.00,29.78,32.96,35.22,4.60,26.32,1003.93,2014.00,3293.81,3174.06,3449.15,350.11,335.87,30.96,0000 0000 0000 0000 000000
2015-06-30 05:35:18,0.01,0.36,0.00,29.81,32.98,35.25,4.48,26.29,1003.94,2014.00,3293.69,3174.00,3449.00,349.67,335.34,30.99,0000 0000 0000 0000 000000
2015-06-30 05:40:19,0.05,0.36,0.00,29.84,33.01,35.27,4.56,26.38,1003.94,2013.97,3293.14,3173.74,3448.46,349.68,335.25,31.02,0000 0000 0000 0000 000000
2015-06-30 05:45:21,0.02,0.36,0.00,29.87,33.05,35.30,4.50,26.27,1003.96,2013.91,3292.96,3173.14,3448.04,349.34,334.94,31.05,0000 0000 0000 0000 000000
2015-06-30 05:50:22,-0.00,0.36,0.00,29.88,33.08,35.33,4.65,26.33,1003.97,2013.80,3292.31,3173.00,3448.00,350.61,335.93,31.08,0000 0000 0000 0000 000000
2015-06-30 05:55:23,-0.03,0.36,0.00,29.91,33.11,35.37,4.66,26.32,1004.10,2013.57,3292.00,3172.91,3447.78,350.22,335.71,31.11,0000 0000 0000 0000 000000
2015-06-30 06:00:25,0.01,0.36,0.00,29.92,33.14,35.41,4.58,26.26,1004.38,2013.09,3291.61,3172.19,3447.05,349.49,335.12,31.14,0000 0000 0000 0000 000000
2015-06-30 06:05:26,0.01,0.36,0.00,29.94,33.18,35.45,4.60,26.36,1004.81,2013.03,3290.89,3172.00,3446.97,350.42,336.02,31.17,0000 0000 0000 0000 000000
2015-06-30 06:10:27,0.09,0.36,0.00,29.97,33.21,35.54,4.60,26.20,1004.90,2013.11,3289.89,3171.42,3446.36,350.04,335.74,31.20,0000 0000 0000 0000 000000
2015-06-30 06:15:29,0.02,0.36,0.00,30.00,33.24,35.59,4.58,26.15,1004.67,2013.07,3289.19,3171.01,3446.00,349.70,335.46,31.23,0000 0000 0000 0000 000000
2015-06-30 06:20:30,0.01,0.36,0.00,30.02,33.26,35.62,4.62,26.13,1004.41,2013.02,3288.98,3170.93,3445.53,349.94,335.65,31.26,0000 0000 0000 0000 000000
2015-06-30 06:25:31,0.05,0.36,0.00,30.05,33.29,35.65,4.58,26.22,1004.44,2013.00,3288.56,3170.37,3445.03,349.65,335.24,31.29,0000 0000 0000 0000 000000
2015-06-30 06:30:33,0.01,0.36,0.00,30.07,33.32,35.67,4.67,26.19,1004.41,2013.00,3288.02,3170.02,3444.97,350.20,335.80,31.32,0000 0000 0000 0000 000000
2015-06-30 06:35:34,0.04,0.36,0.00,30.10,33.35,35.69,4.56,26.06,1004.41,2013.00,3287.54,3169.93,3444.36,349.87,335.43,31.34,0000 0000 0000 0000 000000
2015-06-30 06:40:35,0.04,0.37,0.00,30.12,33.38,35.71,4.58,26.19,1004.42,2012.92,3286.99,3169.15,3444.00,350.11,335.42,31.37,0000 0000 0000 0000 000000
2015-06-30 06:45:37,0.01,0.37,0.00,30.13,33.41,35.72,4.63,26.11,1004.41,2012.91,3286.94,3169.00,3443.87,350.39,335.66,31.40,0000 0000 0000 0000 000000
2015-06-30 06:50:38,-0.01,0.37,0.00,30.15,33.43,35.74,4.64,26.09,1004.41,2012.64,3286.27,3168.96,3443.22,350.50,335.95,31.43,0000 0000 0000 0000 000000
2015-06-30 06:55:39,-0.04,0.36,0.00,30.16,33.46,35.76,4.61,26.12,1004.41,2012.19,3286.15,3168.66,3443.01,350.03,335.34,31.46,0000 0000 0000 0000 000000
2015-06-30 07:00:40,0.01,0.37,0.00,30.19,33.49,35.78,4.62,26.16,1004.41,2012.04,3285.99,3168.07,3442.91,350.35,335.71,31.49,0000 0000 0000 0000 000000
2015-06-30 07:05:42,0.04,0.37,0.00,30.21,33.51,35.81,4.61,26.16,1004.41,2012.00,3285.60,3168.00,3442.32,349.92,335.28,31.52,0000 0000 0000 0000 000000
2015-06-30 07:10:43,-0.00,0.37,0.00,30.22,33.54,35.84,4.62,26.19,1004.43,2012.00,3285.27,3167.91,3441.99,350.12,335.37,31.55,0000 0000 0000 0000 000000
2015-06-30 07:15:44,0.06,0.37,0.00,30.25,33.56,35.88,4.67,26.28,1004.42,2011.94,3285.06,3167.14,3441.39,350.52,335.70,31.58,0000 0000 0000 0000 000000
2015-06-30 07:20:45,0.00,0.37,0.00,30.26,33.59,35.90,4.62,26.25,1004.41,2011.85,3284.53,3167.00,3441.01,349.77,335.09,31.61,0000 0000 0000 0000 000000
2015-06-30 07:25:46,-0.07,0.37,0.00,30.27,33.62,35.93,4.68,26.22,1004.41,2011.45,3284.06,3166.84,3440.97,350.43,335.69,31.64,0000 0000 0000 0000 000000
2015-06-30 07:30:48,0.02,0.37,0.00,30.31,33.64,35.94,4.59,26.23,1004.41,2011.16,3283.95,3166.22,3440.66,350.26,335.34,31.67,0000 0000 0000 0000 000000
2015-06-30 07:35:49,0.09,0.37,0.00,30.34,33.66,35.98,4.61,26.21,1004.41,2011.04,3282.91,3165.71,3439.79,349.70,335.10,31.70,0000 0000 0000 0000 000000
2015-06-30 07:40:51,0.13,0.37,0.00,30.36,33.69,36.01,4.59,26.30,1004.41,2011.00,3281.29,3164.49,3438.46,350.53,335.68,31.73,0000 0000 0000 0000 000000
2015-06-30 07:45:52,0.10,0.38,0.00,30.37,33.71,36.03,4.53,26.27,1004.41,2011.00,3280.05,3163.44,3437.26,349.62,334.80,31.75,0000 0000 0000 0000 000000
2015-06-30 07:50:53,0.11,0.38,0.00,30.38,33.74,36.05,4.60,26.41,1004.41,2010.98,3278.75,3162.47,3436.20,350.19,335.34,31.78,0000 0000 0000 0000 000000
2015-06-30 07:55:54,0.07,0.38,0.00,30.40,33.76,36.08,4.57,26.41,1004.41,2010.79,3277.25,3161.23,3434.86,349.84,335.11,31.81,0000 0000 0000 0000 000000
2015-06-30 08:00:55,0.06,0.38,0.00,30.41,33.79,36.11,4.55,26.27,1004.42,2010.26,3275.73,3160.12,3433.70,349.77,335.03,31.84,0000 0000 0000 0000 000000
2015-06-30 08:05:57,0.05,0.38,0.00,30.44,33.81,36.14,4.65,26.37,1004.42,2010.06,3274.54,3159.14,3432.75,350.30,335.42,31.87,0000 0000 0000 0000 000000
2015-06-30 08:10:58,0.06,0.39,0.00,30.45,33.83,36.17,4.51,26.20,1004.42,2010.00,3273.67,3158.50,3432.00,349.72,334.96,31.90,0000 0000 0000 0000 000000
2015-06-30 08:16:00,0.04,0.39,0.00,30.46,33.85,36.19,4.69,26.37,1004.42,2010.00,3273.06,3158.03,3431.48,351.01,335.92,31.93,0000 0000 0000 0000 000000
2015-06-30 08:21:01,0.01,0.39,0.00,30.48,33.87,36.20,4.44,26.29,1004.44,2010.00,3272.91,3157.96,3431.00,349.34,334.63,31.96,0000 0000 0000 0000 000000
2015-06-30 08:26:02,0.06,0.39,0.00,30.50,33.90,36.21,4.60,26.38,1004.45,2009.98,3272.19,3157.29,3430.61,349.57,334.66,31.99,0000 0000 0000 0000 000000
2015-06-30 08:31:04,-0.02,0.39,0.00,30.50,33.91,36.25,4.61,26.38,1004.46,2009.80,3271.95,3157.00,3430.02,350.13,335.16,32.02,0000 0000 0000 0000 000000
2015-06-30 08:36:05,-0.01,0.39,0.00,30.52,33.93,36.27,4.65,26.44,1004.44,2009.61,3271.70,3156.97,3429.97,349.76,334.59,32.05,0000 0000 0000 0000 000000
2015-06-30 08:41:06,-0.01,0.39,0.00,30.53,33.95,36.29,4.62,26.43,1004.43,2009.15,3271.04,3156.48,3429.36,350.29,335.28,32.08,0000 0000 0000 0000 000000
2015-06-30 08:46:08,-0.00,0.39,0.00,30.54,33.97,36.29,4.64,26.35,1004.42,2009.05,3270.95,3156.09,3429.04,350.54,335.40,32.11,0000 0000 0000 0000 000000
2015-06-30 08:51:09,0.02,0.39,0.00,30.56,33.99,36.31,4.48,26.32,1004.42,2009.01,3270.32,3156.00,3428.98,349.77,334.91,32.14,0000 0000 0000 0000 000000
2015-06-30 08:56:10,0.02,0.39,0.00,30.59,34.01,36.33,4.58,26.52,1004.43,2009.00,3270.01,3155.90,3428.53,349.86,335.10,32.16,0000 0000 0000 0000 000000
2015-06-30 09:01:12,0.05,0.39,0.00,30.60,34.02,36.36,4.56,26.42,1004.41,2009.00,3269.81,3155.36,3428.03,350.06,335.02,32.19,0000 0000 0000 0000 000000
2015-06-30 09:06:13,0.02,0.39,0.00,30.62,34.05,36.38,4.56,26.34,1004.41,2009.00,3269.19,3155.05,3428.00,349.91,334.75,32.22,0000 0000 0000 0000 000000
2015-06-30 09:11:15,0.01,0.39,0.00,30.62,34.06,36.41,4.60,26.45,1004.41,2008.96,3268.97,3154.99,3427.61,349.83,334.53,32.25,0000 0000 0000 0000 000000
2015-06-30 09:16:16,0.02,0.39,0.00,30.65,34.07,36.41,4.67,26.40,1004.41,2008.91,3268.65,3154.83,3427.09,350.45,335.31,32.28,0000 0000 0000 0000 000000
2015-06-30 09:21:17,0.02,0.39,0.00,30.66,34.10,36.43,4.48,26.31,1004.41,2008.80,3268.12,3154.40,3427.00,349.63,334.53,32.31,0000 0000 0000 0000 000000
2015-06-30 09:26:18,-0.06,0.39,0.00,30.69,34.11,36.45,4.55,26.43,1004.40,2008.37,3268.00,3154.05,3426.91,349.66,334.67,32.34,0000 0000 0000 0000 000000
2015-06-30 09:31:20,-0.01,0.39,0.00,30.71,34.13,36.46,4.60,26.49,1004.41,2008.14,3267.88,3154.00,3426.39,350.59,335.05,32.37,0000 0000 0000 0000 000000
2015-06-30 09:36:21,0.01,0.39,0.00,30.73,34.15,36.49,4.59,26.41,1004.40,2008.05,3267.24,3153.96,3426.02,350.41,335.16,32.40,0000 0000 0000 0000 000000
2015-06-30 09:41:22,0.02,0.39,0.00,30.76,34.16,36.52,4.59,26.39,1004.40,2008.01,3267.00,3153.37,3425.98,350.03,334.86,32.43,0000 0000 0000 0000 000000
2015-06-30 09:46:24,0.01,0.39,0.00,30.78,34.18,36.55,4.72,26.52,1004.37,2008.00,3266.90,3153.08,3425.78,350.76,335.08,32.46,0000 0000 0000 0000 000000
2015-06-30 09:51:25,0.03,0.40,0.00,30.80,34.20,36.55,4.61,26.38,1004.38,2008.00,3266.25,3153.00,3425.09,350.16,334.87,32.49,0000 0000 0000 0000 000000
2015-06-30 09:56:26,0.00,0.40,0.00,30.82,34.22,36.59,4.65,26.38,1004.33,2007.99,3266.00,3152.95,3424.99,349.79,334.44,32.52,0000 0000 0000 0000 000000
2015-06-30 10:01:28,0.02,0.40,0.00,30.82,34.24,36.60,4.55,26.32,1004.27,2007.98,3265.87,3152.59,3424.86,349.94,334.66,32.55,0000 0000 0000 0000 000000
2015-06-30 10:06:29,0.05,0.40,0.00,30.83,34.26,36.65,4.60,26.35,1004.18,2007.98,3265.37,3152.11,3424.37,350.04,334.50,32.57,0000 0000 0000 0000 000000
2015-06-30 10:11:30,0.00,0.40,0.00,30.82,34.27,36.66,4.60,26.29,1004.09,2007.91,3265.02,3152.00,3424.02,349.62,334.14,32.60,0000 0000 0000 0000 000000
2015-06-30 10:16:31,-0.04,0.40,0.00,30.85,34.30,36.68,4.59,26.25,1003.96,2007.74,3264.97,3152.00,3424.00,349.76,334.43,32.63,0000 0000 0000 0000 000000
2015-06-30 10:21:33,0.00,0.40,0.00,30.85,34.31,36.70,4.60,26.38,1003.92,2007.42,3264.34,3151.74,3423.71,350.33,334.78,32.66,0000 0000 0000 0000 000000
2015-06-30 10:26:34,0.01,0.40,0.00,30.87,34.33,36.70,4.57,26.41,1003.92,2007.22,3264.02,3151.22,3423.16,350.10,334.16,32.69,0000 0000 0000 0000 000000
2015-06-30 10:31:34,-0.00,0.40,0.00,30.89,34.35,36.69,4.68,26.54,1003.92,2007.05,3263.97,3151.00,3423.00,350.16,334.57,32.72,0000 0000 0000 0000 000000
2015-06-30 10:36:36,0.01,0.40,0.00,30.91,34.37,36.68,4.65,26.60,1003.92,2007.02,3263.55,3150.99,3422.84,349.95,334.40,32.75,0000 0000 0000 0000 000000
2015-06-30 10:41:37,0.04,0.40,0.00,30.94,34.39,36.67,4.52,26.41,1003.92,2007.00,3263.03,3150.72,3422.11,349.82,334.21,32.78,0000 0000 0000 0000 000000
2015-06-30 10:46:38,0.01,0.40,0.00,30.97,34.40,36.64,4.58,26.45,1003.92,2007.00,3263.00,3150.38,3422.01,349.99,334.46,32.81,0000 0000 0000 0000 000000
2015-06-30 10:51:40,0.01,0.40,0.00,30.99,34.42,36.63,4.62,26.38,1003.92,2007.00,3262.93,3150.05,3421.99,349.97,334.57,32.84,0000 0000 0000 0000 000000
2015-06-30 10:56:41,0.03,0.40,0.00,31.02,34.45,36.69,4.61,26.35,1003.92,2006.99,3262.34,3150.00,3421.69,350.00,334.29,32.87,0000 0000 0000 0000 000000
2015-06-30 11:01:42,0.01,0.40,0.00,31.06,34.47,36.72,4.63,26.38,1003.92,2006.98,3262.02,3149.90,3421.07,349.94,334.31,32.90,0000 0000 0000 0000 000000
2015-06-30 11:06:43,0.02,0.40,0.00,31.09,34.50,36.73,4.61,26.36,1003.92,2006.93,3261.95,3149.29,3421.00,350.36,334.35,32.93,0000 0000 0000 0000 000000
2015-06-30 11:11:45,0.00,0.40,0.00,31.13,34.52,36.75,4.51,26.29,1003.92,2006.78,3261.38,3149.01,3420.78,349.54,333.68,32.96,0000 0000 0000 0000 000000
2015-06-30 11:16:46,-0.02,0.40,0.00,31.16,34.54,36.77,4.59,26.26,1003.92,2006.45,3261.01,3148.97,3420.14,350.36,334.57,32.98,0000 0000 0000 0000 000000
2015-06-30 11:21:47,-0.03,0.40,0.00,31.18,34.57,36.79,4.51,26.20,1003.92,2006.11,3260.92,3148.64,3420.00,349.72,334.07,33.01,0000 0000 0000 0000 000000
2015-06-30 11:26:48,0.03,0.40,0.00,31.20,34.59,36.82,4.64,26.35,1003.92,2006.04,3260.44,3148.20,3419.84,350.04,334.32,33.04,0000 0000 0000 0000 000000
2015-06-30 11:31:49,0.02,0.40,0.00,31.22,34.61,36.84,4.64,26.35,1003.91,2006.00,3260.00,3148.00,3419.17,350.12,334.05,33.07,0000 0000 0000 0000 000000
2015-06-30 11:36:51,0.01,0.40,0.00,31.24,34.63,36.87,4.49,26.27,1003.90,2006.00,3259.88,3147.95,3419.00,349.97,334.21,33.10,0000 0000 0000 0000 000000
2015-06-30 11:41:52,0.06,0.40,0.00,31.26,34.65,36.90,4.56,26.35,1003.88,2005.99,3259.16,3147.28,3418.78,349.98,333.97,33.13,0000 0000 0000 0000 000000
2015-06-30 11:46:53,0.02,0.41,0.00,31.27,34.67,36.91,4.60,26.32,1003.84,2005.98,3258.98,3147.02,3418.17,350.29,334.15,33.16,0000 0000 0000 0000 000000
2015-06-30 11:51:55,0.02,0.41,0.00,31.27,34.70,36.94,4.55,26.28,1003.82,2005.94,3258.43,3146.96,3417.99,350.19,334.10,33.19,0000 0000 0000 0000 000000
2015-06-30 11:56:56,0.06,0.41,0.00,31.28,34.72,36.96,4.56,26.28,1003.78,2005.91,3257.88,3146.33,3417.44,350.19,334.15,33.22,0000 0000 0000 0000 000000
2015-06-30 12:01:57,0.07,0.41,0.00,31.27,34.74,36.99,4.58,26.20,1003.68,2005.77,3256.70,3145.67,3416.76,349.73,333.59,33.25,0000 0000 0000 0000 000000
2015-06-30 12:06:59,0.18,0.41,0.00,31.27,34.75,37.04,4.57,26.19,1003.72,2005.72,3254.50,3144.09,3415.09,350.27,334.14,33.28,0000 0000 0000 0000 000000
2015-06-30 12:12:00,0.25,0.42,0.00,31.25,34.77,37.11,4.61,26.21,1003.79,2005.53,3250.98,3141.49,3412.33,350.04,334.08,33.31,0000 0000 0000 0000 000000
2015-06-30 12:17:01,0.28,0.43,0.00,31.23,34.78,37.16,4.54,26.15,1003.79,2005.25,3247.06,3138.68,3409.32,349.94,334.04,33.34,0000 0000 0000 0000 000000
2015-06-30 12:22:02,0.33,0.44,0.00,31.21,34.80,37.18,4.64,26.26,1003.83,2005.11,3242.72,3135.59,3405.97,349.78,333.61,33.37,0000 0000 0000 0000 000000
2015-06-30 12:27:03,0.24,0.45,0.00,31.18,34.80,37.19,4.53,26.21,1003.87,2005.04,3239.33,3133.21,3403.21,349.81,334.01,33.39,0000 0000 0000 0000 000000
2015-06-30 12:32:04,0.24,0.45,0.00,31.17,34.82,37.20,4.53,26.28,1003.81,2005.01,3236.28,3130.99,3400.89,349.73,334.07,33.42,0000 0000 0000 0000 000000
2015-06-30 12:37:06,0.27,0.46,0.00,31.17,34.82,37.20,4.62,26.30,1003.74,2005.01,3232.88,3128.56,3398.35,350.46,334.60,33.45,0000 0000 0000 0000 000000
2015-06-30 12:42:07,0.28,0.47,0.00,31.15,34.82,37.21,4.62,26.31,1003.60,2005.00,3229.27,3126.02,3395.60,349.88,333.93,33.48,0000 0000 0000 0000 000000
2015-06-30 12:47:08,0.23,0.48,0.00,31.13,34.83,37.21,4.64,26.26,1003.51,2005.00,3226.26,3123.79,3393.24,350.05,334.15,33.51,0000 0000 0000 0000 000000
2015-06-30 12:52:09,0.20,0.48,0.00,31.12,34.84,37.21,4.63,26.25,1003.54,2005.00,3223.87,3121.85,3391.22,350.39,334.26,33.54,0000 0000 0000 0000 000000
2015-06-30 12:57:11,0.21,0.49,0.00,31.12,34.85,37.22,4.49,26.18,1003.51,2005.00,3221.35,3119.93,3389.29,349.60,333.66,33.57,0000 0000 0000 0000 000000
2015-06-30 13:02:12,0.19,0.50,0.00,31.11,34.85,37.22,4.64,26.29,1003.46,2005.00,3218.91,3118.16,3387.33,349.96,334.01,33.60,0000 0000 0000 0000 000000